Year,Month,Day,Hour,Minute,Value (Times are PST for temperature in C)
2018,07,07,00,00,17.80
2018,07,07,00,01,17.80
2018,07,07,00,02,17.80
2018,07,07,00,03,17.80
2018,07,07,00,04,17.80
2018,07,07,00,05,17.80
2018,07,07,00,06,17.70
2018,07,07,00,07,17.70
2018,07,07,00,08,17.70
2018,07,07,00,09,17.70
2018,07,07,00,10,17.70
2018,07,07,00,11,17.70
2018,07,07,00,12,17.70
2018,07,07,00,13,17.70
2018,07,07,00,14,17.60
2018,07,07,00,15,17.60
2018,07,07,00,16,17.60
2018,07,07,00,17,17.60
2018,07,07,00,18,17.50
2018,07,07,00,19,17.50
2018,07,07,00,20,17.50
2018,07,07,00,21,17.50
2018,07,07,00,22,17.50
2018,07,07,00,23,17.40
2018,07,07,00,24,17.40
2018,07,07,00,25,17.40
2018,07,07,00,26,17.40
2018,07,07,00,27,17.40
2018,07,07,00,28,17.40
2018,07,07,00,29,17.40
2018,07,07,00,30,17.40
2018,07,07,00,31,17.40
2018,07,07,00,32,17.40
2018,07,07,00,33,17.40
2018,07,07,00,34,17.30
2018,07,07,00,35,17.30
2018,07,07,00,36,17.30
2018,07,07,00,37,17.30
2018,07,07,00,38,17.30
2018,07,07,00,39,17.30
2018,07,07,00,40,17.30
2018,07,07,00,41,17.30
2018,07,07,00,42,17.30
2018,07,07,00,43,17.30
2018,07,07,00,44,17.40
2018,07,07,00,45,17.40
2018,07,07,00,46,17.40
2018,07,07,00,47,17.40
2018,07,07,00,48,17.40
2018,07,07,00,49,17.40
2018,07,07,00,50,17.40
2018,07,07,00,51,17.40
2018,07,07,00,52,17.40
2018,07,07,00,53,17.40
2018,07,07,00,54,17.40
2018,07,07,00,55,17.40
2018,07,07,00,56,17.40
2018,07,07,00,57,17.40
2018,07,07,00,58,17.40
2018,07,07,00,59,17.40
2018,07,07,01,00,17.40
2018,07,07,01,01,17.40
2018,07,07,01,02,17.40
2018,07,07,01,03,17.40
2018,07,07,01,04,17.30
2018,07,07,01,05,17.30
2018,07,07,01,06,17.30
2018,07,07,01,07,17.30
2018,07,07,01,08,17.30
2018,07,07,01,09,17.30
2018,07,07,01,10,17.30
2018,07,07,01,11,17.30
2018,07,07,01,12,17.30
2018,07,07,01,13,17.30
2018,07,07,01,14,17.30
2018,07,07,01,15,17.30
2018,07,07,01,16,17.30
2018,07,07,01,17,17.30
2018,07,07,01,18,17.30
2018,07,07,01,19,17.30
2018,07,07,01,20,17.30
2018,07,07,01,21,17.30
2018,07,07,01,22,17.30
2018,07,07,01,23,17.30
2018,07,07,01,24,17.30
2018,07,07,01,25,17.30
2018,07,07,01,26,17.30
2018,07,07,01,27,17.30
2018,07,07,01,28,17.30
2018,07,07,01,29,17.30
2018,07,07,01,30,17.30
2018,07,07,01,31,17.30
2018,07,07,01,32,17.30
2018,07,07,01,33,17.30
2018,07,07,01,34,17.30
2018,07,07,01,35,17.30
2018,07,07,01,36,17.30
2018,07,07,01,37,17.30
2018,07,07,01,38,17.30
2018,07,07,01,39,17.30
2018,07,07,01,40,17.30
2018,07,07,01,41,17.30
2018,07,07,01,42,17.30
2018,07,07,01,43,17.30
2018,07,07,01,44,17.30
2018,07,07,01,45,17.30
2018,07,07,01,46,17.30
2018,07,07,01,47,17.30
2018,07,07,01,48,17.30
2018,07,07,01,49,17.30
2018,07,07,01,50,17.30
2018,07,07,01,51,17.30
2018,07,07,01,52,17.30
2018,07,07,01,53,17.30
2018,07,07,01,54,17.30
2018,07,07,01,55,17.30
2018,07,07,01,56,17.30
2018,07,07,01,57,17.30
2018,07,07,01,58,17.30
2018,07,07,01,59,17.30
2018,07,07,02,00,17.30
2018,07,07,02,01,17.30
2018,07,07,02,02,17.30
2018,07,07,02,03,17.30
2018,07,07,02,04,17.30
2018,07,07,02,05,17.30
2018,07,07,02,06,17.30
2018,07,07,02,07,17.30
2018,07,07,02,08,17.30
2018,07,07,02,09,17.30
2018,07,07,02,10,17.30
2018,07,07,02,11,17.30
2018,07,07,02,12,17.30
2018,07,07,02,13,17.20
2018,07,07,02,14,17.20
2018,07,07,02,15,17.10
2018,07,07,02,16,17.00
2018,07,07,02,17,16.90
2018,07,07,02,18,16.80
2018,07,07,02,19,16.70
2018,07,07,02,20,16.50
2018,07,07,02,21,16.40
2018,07,07,02,22,16.30
2018,07,07,02,23,16.20
2018,07,07,02,24,16.10
2018,07,07,02,25,16.10
2018,07,07,02,26,16.00
2018,07,07,02,27,15.90
2018,07,07,02,28,15.90
2018,07,07,02,29,15.90
2018,07,07,02,30,15.90
2018,07,07,02,31,15.90
2018,07,07,02,32,15.90
2018,07,07,02,33,15.90
2018,07,07,02,34,15.90
2018,07,07,02,35,15.90
2018,07,07,02,36,15.90
2018,07,07,02,37,15.90
2018,07,07,02,38,15.90
2018,07,07,02,39,15.90
2018,07,07,02,40,15.90
2018,07,07,02,41,16.00
2018,07,07,02,42,16.10
2018,07,07,02,43,16.10
2018,07,07,02,44,16.10
2018,07,07,02,45,16.10
2018,07,07,02,46,16.10
2018,07,07,02,47,16.10
2018,07,07,02,48,16.10
2018,07,07,02,49,16.20
2018,07,07,02,50,16.20
2018,07,07,02,51,16.20
2018,07,07,02,52,16.20
2018,07,07,02,53,16.20
2018,07,07,02,54,16.10
2018,07,07,02,55,16.10
2018,07,07,02,56,15.90
2018,07,07,02,57,15.80
2018,07,07,02,58,15.80
2018,07,07,02,59,15.70
2018,07,07,03,00,15.60
2018,07,07,03,01,15.60
2018,07,07,03,02,15.60
2018,07,07,03,03,15.50
2018,07,07,03,04,15.50
2018,07,07,03,05,15.50
2018,07,07,03,06,15.50
2018,07,07,03,07,15.50
2018,07,07,03,08,15.50
2018,07,07,03,09,15.50
2018,07,07,03,10,15.50
2018,07,07,03,11,15.40
2018,07,07,03,12,15.40
2018,07,07,03,13,15.40
2018,07,07,03,14,15.40
2018,07,07,03,15,15.40
2018,07,07,03,16,15.40
2018,07,07,03,17,15.40
2018,07,07,03,18,15.40
2018,07,07,03,19,15.40
2018,07,07,03,20,15.40
2018,07,07,03,21,15.40
2018,07,07,03,22,15.50
2018,07,07,03,23,15.50
2018,07,07,03,24,15.50
2018,07,07,03,25,15.50
2018,07,07,03,26,15.50
2018,07,07,03,27,15.50
2018,07,07,03,28,15.50
2018,07,07,03,29,15.40
2018,07,07,03,30,15.40
2018,07,07,03,31,15.40
2018,07,07,03,32,15.40
2018,07,07,03,33,15.40
2018,07,07,03,34,15.40
2018,07,07,03,35,15.40
2018,07,07,03,36,15.40
2018,07,07,03,37,15.40
2018,07,07,03,38,15.40
2018,07,07,03,39,15.40
2018,07,07,03,40,15.40
2018,07,07,03,41,15.40
2018,07,07,03,42,15.40
2018,07,07,03,43,15.40
2018,07,07,03,44,15.40
2018,07,07,03,45,15.40
2018,07,07,03,46,15.40
2018,07,07,03,47,15.50
2018,07,07,03,48,15.50
2018,07,07,03,49,15.50
2018,07,07,03,50,15.50
2018,07,07,03,51,15.50
2018,07,07,03,52,15.50
2018,07,07,03,53,15.50
2018,07,07,03,54,15.50
2018,07,07,03,55,15.50
2018,07,07,03,56,15.50
2018,07,07,03,57,15.50
2018,07,07,03,58,15.50
2018,07,07,03,59,15.50
2018,07,07,04,00,15.50
2018,07,07,04,01,15.50
2018,07,07,04,02,15.50
2018,07,07,04,03,15.50
2018,07,07,04,04,15.50
2018,07,07,04,05,15.60
2018,07,07,04,06,15.60
2018,07,07,04,07,15.60
2018,07,07,04,08,15.60
2018,07,07,04,09,15.70
2018,07,07,04,10,15.70
2018,07,07,04,11,15.70
2018,07,07,04,12,15.70
2018,07,07,04,13,15.70
2018,07,07,04,14,15.70
2018,07,07,04,15,15.70
2018,07,07,04,16,15.70
2018,07,07,04,17,15.80
2018,07,07,04,18,15.80
2018,07,07,04,19,15.80
2018,07,07,04,20,15.80
2018,07,07,04,21,15.80
2018,07,07,04,22,15.80
2018,07,07,04,23,15.80
2018,07,07,04,24,15.80
2018,07,07,04,25,15.70
2018,07,07,04,26,15.70
2018,07,07,04,27,15.60
2018,07,07,04,28,15.60
2018,07,07,04,29,15.60
2018,07,07,04,30,15.60
2018,07,07,04,31,15.60
2018,07,07,04,32,15.60
2018,07,07,04,33,15.60
2018,07,07,04,34,15.50
2018,07,07,04,35,15.50
2018,07,07,04,36,15.40
2018,07,07,04,37,15.50
2018,07,07,04,38,15.50
2018,07,07,04,39,15.50
2018,07,07,04,40,15.50
2018,07,07,04,41,15.50
2018,07,07,04,42,15.50
2018,07,07,04,43,15.40
2018,07,07,04,44,15.40
2018,07,07,04,45,15.40
2018,07,07,04,46,15.40
2018,07,07,04,47,15.30
2018,07,07,04,48,15.30
2018,07,07,04,49,15.20
2018,07,07,04,50,15.10
2018,07,07,04,51,15.00
2018,07,07,04,52,14.90
2018,07,07,04,53,14.90
2018,07,07,04,54,14.80
2018,07,07,04,55,14.70
2018,07,07,04,56,14.70
2018,07,07,04,57,14.60
2018,07,07,04,58,14.60
2018,07,07,04,59,14.60
2018,07,07,05,00,14.60
2018,07,07,05,01,14.60
2018,07,07,05,02,14.60
2018,07,07,05,03,14.60
2018,07,07,05,04,14.60
2018,07,07,05,05,14.60
2018,07,07,05,06,14.60
2018,07,07,05,07,14.60
2018,07,07,05,08,14.60
2018,07,07,05,09,14.60
2018,07,07,05,10,14.60
2018,07,07,05,11,14.60
2018,07,07,05,12,14.60
2018,07,07,05,13,14.60
2018,07,07,05,14,14.50
2018,07,07,05,15,14.50
2018,07,07,05,16,14.50
2018,07,07,05,17,14.40
2018,07,07,05,18,14.40
2018,07,07,05,19,14.40
2018,07,07,05,20,14.30
2018,07,07,05,21,14.30
2018,07,07,05,22,14.20
2018,07,07,05,23,14.20
2018,07,07,05,24,14.20
2018,07,07,05,25,14.10
2018,07,07,05,26,14.10
2018,07,07,05,27,14.10
2018,07,07,05,28,14.00
2018,07,07,05,29,14.00
2018,07,07,05,30,13.90
2018,07,07,05,31,13.90
2018,07,07,05,32,13.80
2018,07,07,05,33,13.70
2018,07,07,05,34,13.70
2018,07,07,05,35,13.70
2018,07,07,05,36,13.70
2018,07,07,05,37,13.70
2018,07,07,05,38,13.70
2018,07,07,05,39,13.70
2018,07,07,05,40,13.70
2018,07,07,05,41,13.70
2018,07,07,05,42,13.70
2018,07,07,05,43,13.70
2018,07,07,05,44,13.70
2018,07,07,05,45,13.70
2018,07,07,05,46,13.70
2018,07,07,05,47,13.70
2018,07,07,05,48,13.70
2018,07,07,05,49,13.70
2018,07,07,05,50,13.70
2018,07,07,05,51,13.70
2018,07,07,05,52,13.70
2018,07,07,05,53,13.70
2018,07,07,05,54,13.70
2018,07,07,05,55,13.70
2018,07,07,05,56,13.70
2018,07,07,05,57,13.80
2018,07,07,05,58,13.80
2018,07,07,05,59,13.80
2018,07,07,06,00,13.80
2018,07,07,06,01,13.90
2018,07,07,06,02,13.90
2018,07,07,06,03,13.90
2018,07,07,06,04,13.80
2018,07,07,06,05,13.80
2018,07,07,06,06,13.80
2018,07,07,06,07,13.80
2018,07,07,06,08,13.70
2018,07,07,06,09,13.70
2018,07,07,06,10,13.70
2018,07,07,06,11,13.70
2018,07,07,06,12,13.70
2018,07,07,06,13,13.70
2018,07,07,06,14,13.70
2018,07,07,06,15,13.70
2018,07,07,06,16,13.70
2018,07,07,06,17,13.70
2018,07,07,06,18,13.70
2018,07,07,06,19,13.70
2018,07,07,06,20,13.70
2018,07,07,06,21,13.70
2018,07,07,06,22,13.70
2018,07,07,06,23,13.70
2018,07,07,06,24,13.60
2018,07,07,06,25,13.60
2018,07,07,06,26,13.50
2018,07,07,06,27,13.50
2018,07,07,06,28,13.50
2018,07,07,06,29,13.50
2018,07,07,06,30,13.50
2018,07,07,06,31,13.60
2018,07,07,06,32,13.60
2018,07,07,06,33,13.60
2018,07,07,06,34,13.70
2018,07,07,06,35,13.70
2018,07,07,06,36,13.70
2018,07,07,06,37,13.70
2018,07,07,06,38,13.70
2018,07,07,06,39,13.70
2018,07,07,06,40,13.70
2018,07,07,06,41,13.70
2018,07,07,06,42,13.70
2018,07,07,06,43,13.70
2018,07,07,06,44,13.70
2018,07,07,06,45,13.70
2018,07,07,06,46,13.70
2018,07,07,06,47,13.70
2018,07,07,06,48,13.70
2018,07,07,06,49,13.70
2018,07,07,06,50,13.70
2018,07,07,06,51,13.70
2018,07,07,06,52,13.70
2018,07,07,06,53,13.80
2018,07,07,06,54,13.80
2018,07,07,06,55,13.80
2018,07,07,06,56,13.80
2018,07,07,06,57,13.70
2018,07,07,06,58,13.70
2018,07,07,06,59,13.70
2018,07,07,07,00,13.70
2018,07,07,07,01,13.70
2018,07,07,07,02,13.70
2018,07,07,07,03,13.70
2018,07,07,07,04,13.70
2018,07,07,07,05,13.70
2018,07,07,07,06,13.70
2018,07,07,07,07,13.70
2018,07,07,07,08,13.70
2018,07,07,07,09,13.80
2018,07,07,07,10,13.80
2018,07,07,07,11,13.80
2018,07,07,07,12,13.90
2018,07,07,07,13,13.90
2018,07,07,07,14,13.90
2018,07,07,07,15,14.00
2018,07,07,07,16,14.00
2018,07,07,07,17,14.00
2018,07,07,07,18,14.00
2018,07,07,07,19,14.00
2018,07,07,07,20,14.00
2018,07,07,07,21,14.00
2018,07,07,07,22,14.00
2018,07,07,07,23,13.90
2018,07,07,07,24,13.90
2018,07,07,07,25,13.90
2018,07,07,07,26,13.90
2018,07,07,07,27,14.00
2018,07,07,07,28,14.00
2018,07,07,07,29,14.10
2018,07,07,07,30,14.10
2018,07,07,07,31,14.10
2018,07,07,07,32,14.10
2018,07,07,07,33,14.20
2018,07,07,07,34,14.20
2018,07,07,07,35,14.20
2018,07,07,07,36,14.30
2018,07,07,07,37,14.40
2018,07,07,07,38,14.30
2018,07,07,07,39,14.30
2018,07,07,07,40,14.30
2018,07,07,07,41,14.30
2018,07,07,07,42,14.30
2018,07,07,07,43,14.30
2018,07,07,07,44,14.30
2018,07,07,07,45,14.30
2018,07,07,07,46,14.40
2018,07,07,07,47,14.40
2018,07,07,07,48,14.40
2018,07,07,07,49,14.40
2018,07,07,07,50,14.50
2018,07,07,07,51,14.50
2018,07,07,07,52,14.50
2018,07,07,07,53,14.60
2018,07,07,07,54,14.70
2018,07,07,07,55,14.70
2018,07,07,07,56,14.70
2018,07,07,07,57,14.70
2018,07,07,07,58,14.70
2018,07,07,07,59,14.70
2018,07,07,08,00,14.70
2018,07,07,08,01,14.80
2018,07,07,08,02,14.80
2018,07,07,08,03,15.00
2018,07,07,08,04,15.00
2018,07,07,08,05,15.10
2018,07,07,08,06,15.10
2018,07,07,08,07,15.20
2018,07,07,08,08,15.20
2018,07,07,08,09,15.20
2018,07,07,08,10,15.20
2018,07,07,08,11,15.20
2018,07,07,08,12,15.30
2018,07,07,08,13,15.30
2018,07,07,08,14,15.40
2018,07,07,08,15,15.50
2018,07,07,08,16,15.40
2018,07,07,08,17,15.40
2018,07,07,08,18,15.40
2018,07,07,08,19,15.50
2018,07,07,08,20,15.60
2018,07,07,08,21,15.60
2018,07,07,08,22,15.60
2018,07,07,08,23,15.60
2018,07,07,08,24,15.60
2018,07,07,08,25,15.60
2018,07,07,08,26,15.60
2018,07,07,08,27,15.70
2018,07,07,08,28,15.70
2018,07,07,08,29,15.70
2018,07,07,08,30,15.80
2018,07,07,08,31,15.80
2018,07,07,08,32,15.70
2018,07,07,08,33,15.70
2018,07,07,08,34,15.70
2018,07,07,08,35,15.80
2018,07,07,08,36,15.70
2018,07,07,08,37,15.80
2018,07,07,08,38,15.80
2018,07,07,08,39,15.80
2018,07,07,08,40,15.80
2018,07,07,08,41,15.80
2018,07,07,08,42,15.90
2018,07,07,08,43,15.90
2018,07,07,08,44,15.90
2018,07,07,08,45,15.90
2018,07,07,08,46,15.90
2018,07,07,08,47,15.90
2018,07,07,08,48,16.00
2018,07,07,08,49,16.10
2018,07,07,08,50,16.20
2018,07,07,08,51,16.20
2018,07,07,08,52,16.30
2018,07,07,08,53,16.20
2018,07,07,08,54,16.20
2018,07,07,08,55,16.20
2018,07,07,08,56,16.20
2018,07,07,08,57,16.20
2018,07,07,08,58,16.20
2018,07,07,08,59,16.10
2018,07,07,09,00,16.10
2018,07,07,09,01,16.10
2018,07,07,09,02,16.10
2018,07,07,09,03,16.10
2018,07,07,09,04,16.10
2018,07,07,09,05,16.10
2018,07,07,09,06,16.10
2018,07,07,09,07,16.10
2018,07,07,09,08,16.10
2018,07,07,09,09,16.10
2018,07,07,09,10,16.10
2018,07,07,09,11,16.10
2018,07,07,09,12,16.20
2018,07,07,09,13,16.30
2018,07,07,09,14,16.30
2018,07,07,09,15,16.40
2018,07,07,09,16,16.40
2018,07,07,09,17,16.40
2018,07,07,09,18,16.30
2018,07,07,09,19,16.30
2018,07,07,09,20,16.20
2018,07,07,09,21,16.20
2018,07,07,09,22,16.20
2018,07,07,09,23,16.20
2018,07,07,09,24,16.20
2018,07,07,09,25,16.20
2018,07,07,09,26,16.10
2018,07,07,09,27,16.10
2018,07,07,09,28,16.10
2018,07,07,09,29,16.10
2018,07,07,09,30,16.10
2018,07,07,09,31,16.10
2018,07,07,09,32,16.10
2018,07,07,09,33,16.10
2018,07,07,09,34,16.10
2018,07,07,09,35,16.20
2018,07,07,09,36,16.20
2018,07,07,09,37,16.10
2018,07,07,09,38,16.10
2018,07,07,09,39,16.10
2018,07,07,09,40,16.10
2018,07,07,09,41,16.10
2018,07,07,09,42,16.10
2018,07,07,09,43,16.10
2018,07,07,09,44,16.10
2018,07,07,09,45,16.10
2018,07,07,09,46,16.10
2018,07,07,09,47,16.00
2018,07,07,09,48,15.90
2018,07,07,09,49,16.00
2018,07,07,09,50,16.10
2018,07,07,09,51,16.10
2018,07,07,09,52,16.10
2018,07,07,09,53,16.20
2018,07,07,09,54,16.20
2018,07,07,09,55,16.20
2018,07,07,09,56,16.30
2018,07,07,09,57,16.30
2018,07,07,09,58,16.40
2018,07,07,09,59,16.40
2018,07,07,10,00,16.40
2018,07,07,10,01,16.50
2018,07,07,10,02,16.60
2018,07,07,10,03,16.60
2018,07,07,10,04,16.70
2018,07,07,10,05,16.70
2018,07,07,10,06,16.70
2018,07,07,10,07,16.70
2018,07,07,10,08,16.70
2018,07,07,10,09,16.70
2018,07,07,10,10,16.70
2018,07,07,10,11,16.70
2018,07,07,10,12,16.70
2018,07,07,10,13,16.70
2018,07,07,10,14,16.70
2018,07,07,10,15,16.70
2018,07,07,10,16,16.70
2018,07,07,10,17,16.70
2018,07,07,10,18,16.70
2018,07,07,10,19,16.70
2018,07,07,10,20,16.70
2018,07,07,10,21,16.70
2018,07,07,10,22,16.70
2018,07,07,10,23,16.70
2018,07,07,10,24,16.70
2018,07,07,10,25,16.70
2018,07,07,10,26,16.70
2018,07,07,10,27,16.80
2018,07,07,10,28,16.80
2018,07,07,10,29,16.80
2018,07,07,10,30,16.80
2018,07,07,10,31,16.80
2018,07,07,10,32,16.70
2018,07,07,10,33,16.60
2018,07,07,10,34,16.60
2018,07,07,10,35,16.60
2018,07,07,10,36,16.60
2018,07,07,10,37,16.60
2018,07,07,10,38,16.60
2018,07,07,10,39,16.80
2018,07,07,10,40,16.90
2018,07,07,10,41,17.00
2018,07,07,10,42,17.10
2018,07,07,10,43,17.20
2018,07,07,10,44,17.30
2018,07,07,10,45,17.40
2018,07,07,10,46,17.40
2018,07,07,10,47,17.50
2018,07,07,10,48,17.60
2018,07,07,10,49,17.50
2018,07,07,10,50,17.50
2018,07,07,10,51,17.70
2018,07,07,10,52,17.80
2018,07,07,10,53,17.70
2018,07,07,10,54,17.50
2018,07,07,10,55,17.40
2018,07,07,10,56,17.50
2018,07,07,10,57,17.50
2018,07,07,10,58,17.50
2018,07,07,10,59,17.60
2018,07,07,11,00,17.60
2018,07,07,11,01,17.60
2018,07,07,11,02,17.70
2018,07,07,11,03,17.80
2018,07,07,11,04,17.90
2018,07,07,11,05,17.90
2018,07,07,11,06,17.90
2018,07,07,11,07,17.90
2018,07,07,11,08,18.10
2018,07,07,11,09,18.20
2018,07,07,11,10,18.20
2018,07,07,11,11,18.20
2018,07,07,11,12,18.20
2018,07,07,11,13,18.20
2018,07,07,11,14,18.10
2018,07,07,11,15,18.00
2018,07,07,11,16,17.90
2018,07,07,11,17,17.90
2018,07,07,11,18,17.90
2018,07,07,11,19,17.90
2018,07,07,11,20,18.00
2018,07,07,11,21,18.10
2018,07,07,11,22,18.10
2018,07,07,11,23,18.20
2018,07,07,11,24,18.20
2018,07,07,11,25,18.20
2018,07,07,11,26,18.20
2018,07,07,11,27,18.20
2018,07,07,11,28,18.20
2018,07,07,11,29,18.20
2018,07,07,11,30,18.20
2018,07,07,11,31,18.20
2018,07,07,11,32,18.10
2018,07,07,11,33,18.10
2018,07,07,11,34,18.20
2018,07,07,11,35,18.20
2018,07,07,11,36,18.30
2018,07,07,11,37,18.30
2018,07,07,11,38,18.30
2018,07,07,11,39,18.30
2018,07,07,11,40,18.30
2018,07,07,11,41,18.20
2018,07,07,11,42,18.20
2018,07,07,11,43,18.20
2018,07,07,11,44,18.20
2018,07,07,11,45,18.20
2018,07,07,11,46,18.20
2018,07,07,11,47,18.30
2018,07,07,11,48,18.30
2018,07,07,11,49,18.20
2018,07,07,11,50,18.10
2018,07,07,11,51,18.00
2018,07,07,11,52,17.90
2018,07,07,11,53,18.10
2018,07,07,11,54,18.10
2018,07,07,11,55,18.20
2018,07,07,11,56,18.30
2018,07,07,11,57,18.30
2018,07,07,11,58,18.30
2018,07,07,11,59,18.50
2018,07,07,12,00,18.50
2018,07,07,12,01,18.50
2018,07,07,12,02,18.50
2018,07,07,12,03,18.50
2018,07,07,12,04,18.50
2018,07,07,12,05,18.30
2018,07,07,12,06,18.20
2018,07,07,12,07,18.20
2018,07,07,12,08,18.20
2018,07,07,12,09,18.30
2018,07,07,12,10,18.30
2018,07,07,12,11,18.50
2018,07,07,12,12,18.60
2018,07,07,12,13,18.60
2018,07,07,12,14,18.60
2018,07,07,12,15,18.80
2018,07,07,12,16,19.00
2018,07,07,12,17,19.10
2018,07,07,12,18,19.10
2018,07,07,12,19,19.00
2018,07,07,12,20,18.90
2018,07,07,12,21,18.90
2018,07,07,12,22,18.90
2018,07,07,12,23,18.90
2018,07,07,12,24,18.80
2018,07,07,12,25,18.80
2018,07,07,12,26,18.80
2018,07,07,12,27,18.90
2018,07,07,12,28,18.90
2018,07,07,12,29,18.70
2018,07,07,12,30,18.50
2018,07,07,12,31,18.50
2018,07,07,12,32,18.50
2018,07,07,12,33,18.50
2018,07,07,12,34,18.50
2018,07,07,12,35,18.60
2018,07,07,12,36,18.60
2018,07,07,12,37,18.50
2018,07,07,12,38,18.60
2018,07,07,12,39,18.60
2018,07,07,12,40,18.70
2018,07,07,12,41,18.70
2018,07,07,12,42,18.70
2018,07,07,12,43,18.70
2018,07,07,12,44,18.80
2018,07,07,12,45,18.70
2018,07,07,12,46,18.60
2018,07,07,12,47,18.40
2018,07,07,12,48,18.50
2018,07,07,12,49,18.50
2018,07,07,12,50,18.60
2018,07,07,12,51,18.70
2018,07,07,12,52,18.80
2018,07,07,12,53,18.90
2018,07,07,12,54,18.90
2018,07,07,12,55,18.90
2018,07,07,12,56,18.90
2018,07,07,12,57,18.90
2018,07,07,12,58,18.90
2018,07,07,12,59,18.90
2018,07,07,13,00,19.00
2018,07,07,13,01,19.00
2018,07,07,13,02,18.90
2018,07,07,13,03,18.90
2018,07,07,13,04,18.80
2018,07,07,13,05,18.60
2018,07,07,13,06,18.60
2018,07,07,13,07,18.70
2018,07,07,13,08,18.80
2018,07,07,13,09,18.90
2018,07,07,13,10,18.70
2018,07,07,13,11,18.60
2018,07,07,13,12,18.70
2018,07,07,13,13,18.60
2018,07,07,13,14,18.50
2018,07,07,13,15,18.60
2018,07,07,13,16,18.50
2018,07,07,13,17,18.30
2018,07,07,13,18,18.20
2018,07,07,13,19,18.20
2018,07,07,13,20,18.30
2018,07,07,13,21,18.40
2018,07,07,13,22,18.50
2018,07,07,13,23,18.50
2018,07,07,13,24,18.60
2018,07,07,13,25,18.70
2018,07,07,13,26,18.90
2018,07,07,13,27,19.00
2018,07,07,13,28,19.10
2018,07,07,13,29,19.10
2018,07,07,13,30,19.20
2018,07,07,13,31,19.30
2018,07,07,13,32,19.40
2018,07,07,13,33,19.50
2018,07,07,13,34,19.40
2018,07,07,13,35,19.40
2018,07,07,13,36,19.60
2018,07,07,13,37,19.60
2018,07,07,13,38,19.50
2018,07,07,13,39,19.50
2018,07,07,13,40,19.50
2018,07,07,13,41,19.50
2018,07,07,13,42,19.40
2018,07,07,13,43,19.30
2018,07,07,13,44,19.20
2018,07,07,13,45,19.20
2018,07,07,13,46,19.20
2018,07,07,13,47,19.20
2018,07,07,13,48,19.20
2018,07,07,13,49,19.30
2018,07,07,13,50,19.40
2018,07,07,13,51,19.50
2018,07,07,13,52,19.60
2018,07,07,13,53,19.80
2018,07,07,13,54,19.70
2018,07,07,13,55,19.60
2018,07,07,13,56,19.60
2018,07,07,13,57,19.50
2018,07,07,13,58,19.40
2018,07,07,13,59,19.40
2018,07,07,14,00,19.50
2018,07,07,14,01,19.60
2018,07,07,14,02,19.70
2018,07,07,14,03,19.90
2018,07,07,14,04,20.10
2018,07,07,14,05,20.20
2018,07,07,14,06,20.20
2018,07,07,14,07,20.20
2018,07,07,14,08,20.20
2018,07,07,14,09,20.00
2018,07,07,14,10,19.70
2018,07,07,14,11,19.40
2018,07,07,14,12,19.30
2018,07,07,14,13,19.20
2018,07,07,14,14,19.20
2018,07,07,14,15,19.20
2018,07,07,14,16,19.30
2018,07,07,14,17,19.40
2018,07,07,14,18,19.50
2018,07,07,14,19,19.60
2018,07,07,14,20,19.60
2018,07,07,14,21,19.70
2018,07,07,14,22,19.70
2018,07,07,14,23,19.80
2018,07,07,14,24,19.70
2018,07,07,14,25,19.50
2018,07,07,14,26,19.50
2018,07,07,14,27,19.60
2018,07,07,14,28,19.70
2018,07,07,14,29,19.60
2018,07,07,14,30,19.60
2018,07,07,14,31,19.50
2018,07,07,14,32,19.50
2018,07,07,14,33,19.40
2018,07,07,14,34,19.40
2018,07,07,14,35,19.40
2018,07,07,14,36,19.60
2018,07,07,14,37,19.70
2018,07,07,14,38,19.90
2018,07,07,14,39,20.10
2018,07,07,14,40,20.30
2018,07,07,14,41,20.40
2018,07,07,14,42,20.50
2018,07,07,14,43,20.40
2018,07,07,14,44,20.40
2018,07,07,14,45,20.50
2018,07,07,14,46,20.50
2018,07,07,14,47,20.50
2018,07,07,14,48,20.40
2018,07,07,14,49,20.30
2018,07,07,14,50,20.30
2018,07,07,14,51,20.30
2018,07,07,14,52,20.30
2018,07,07,14,53,20.30
2018,07,07,14,54,20.30
2018,07,07,14,55,20.30
2018,07,07,14,56,20.20
2018,07,07,14,57,20.10
2018,07,07,14,58,19.90
2018,07,07,14,59,19.80
2018,07,07,15,00,19.60
2018,07,07,15,01,19.50
2018,07,07,15,02,19.50
2018,07,07,15,03,19.60
2018,07,07,15,04,19.70
2018,07,07,15,05,19.80
2018,07,07,15,06,19.90
2018,07,07,15,07,20.10
2018,07,07,15,08,20.20
2018,07,07,15,09,20.40
2018,07,07,15,10,20.50
2018,07,07,15,11,20.70
2018,07,07,15,12,20.80
2018,07,07,15,13,20.90
2018,07,07,15,14,20.90
2018,07,07,15,15,20.80
2018,07,07,15,16,20.80
2018,07,07,15,17,20.80
2018,07,07,15,18,20.70
2018,07,07,15,19,20.50
2018,07,07,15,20,20.30
2018,07,07,15,21,20.20
2018,07,07,15,22,20.20
2018,07,07,15,23,20.20
2018,07,07,15,24,20.30
2018,07,07,15,25,20.40
2018,07,07,15,26,20.40
2018,07,07,15,27,20.30
2018,07,07,15,28,20.40
2018,07,07,15,29,20.50
2018,07,07,15,30,20.60
2018,07,07,15,31,20.80
2018,07,07,15,32,20.70
2018,07,07,15,33,20.40
2018,07,07,15,34,20.10
2018,07,07,15,35,19.90
2018,07,07,15,36,19.90
2018,07,07,15,37,19.90
2018,07,07,15,38,19.90
2018,07,07,15,39,19.90
2018,07,07,15,40,20.00
2018,07,07,15,41,20.10
2018,07,07,15,42,20.10
2018,07,07,15,43,20.20
2018,07,07,15,44,20.20
2018,07,07,15,45,20.30
2018,07,07,15,46,20.50
2018,07,07,15,47,20.70
2018,07,07,15,48,20.80
2018,07,07,15,49,20.80
2018,07,07,15,50,20.80
2018,07,07,15,51,20.80
2018,07,07,15,52,20.70
2018,07,07,15,53,20.60
2018,07,07,15,54,20.50
2018,07,07,15,55,20.50
2018,07,07,15,56,20.50
2018,07,07,15,57,20.50
2018,07,07,15,58,20.60
2018,07,07,15,59,20.60
2018,07,07,16,00,20.60
2018,07,07,16,01,20.60
2018,07,07,16,02,20.70
2018,07,07,16,03,20.80
2018,07,07,16,04,20.90
2018,07,07,16,05,21.10
2018,07,07,16,06,21.30
2018,07,07,16,07,21.40
2018,07,07,16,08,21.60
2018,07,07,16,09,21.80
2018,07,07,16,10,21.90
2018,07,07,16,11,21.90
2018,07,07,16,12,21.90
2018,07,07,16,13,21.90
2018,07,07,16,14,22.00
2018,07,07,16,15,22.00
2018,07,07,16,16,22.00
2018,07,07,16,17,22.10
2018,07,07,16,18,22.10
2018,07,07,16,19,22.00
2018,07,07,16,20,21.90
2018,07,07,16,21,21.80
2018,07,07,16,22,21.70
2018,07,07,16,23,21.60
2018,07,07,16,24,21.60
2018,07,07,16,25,21.60
2018,07,07,16,26,21.50
2018,07,07,16,27,21.40
2018,07,07,16,28,21.30
2018,07,07,16,29,21.30
2018,07,07,16,30,21.10
2018,07,07,16,31,21.00
2018,07,07,16,32,21.00
2018,07,07,16,33,20.90
2018,07,07,16,34,20.80
2018,07,07,16,35,20.80
2018,07,07,16,36,20.60
2018,07,07,16,37,20.60
2018,07,07,16,38,20.60
2018,07,07,16,39,20.60
2018,07,07,16,40,20.80
2018,07,07,16,41,21.00
2018,07,07,16,42,21.10
2018,07,07,16,43,21.10
2018,07,07,16,44,21.20
2018,07,07,16,45,21.30
2018,07,07,16,46,21.40
2018,07,07,16,47,21.60
2018,07,07,16,48,21.60
2018,07,07,16,49,21.60
2018,07,07,16,50,21.60
2018,07,07,16,51,21.60
2018,07,07,16,52,21.70
2018,07,07,16,53,21.70
2018,07,07,16,54,21.70
2018,07,07,16,55,21.80
2018,07,07,16,56,21.80
2018,07,07,16,57,21.70
2018,07,07,16,58,21.70
2018,07,07,16,59,21.70
2018,07,07,17,00,21.70
2018,07,07,17,01,21.60
2018,07,07,17,02,21.70
2018,07,07,17,03,21.70
2018,07,07,17,04,21.80
2018,07,07,17,05,21.90
2018,07,07,17,06,21.90
2018,07,07,17,07,22.00
2018,07,07,17,08,22.10
2018,07,07,17,09,22.20
2018,07,07,17,10,22.20
2018,07,07,17,11,22.20
2018,07,07,17,12,22.10
2018,07,07,17,13,22.10
2018,07,07,17,14,22.20
2018,07,07,17,15,22.20
2018,07,07,17,16,22.20
2018,07,07,17,17,22.20
2018,07,07,17,18,22.20
2018,07,07,17,19,22.20